This is the latest recevied weather packets stored in our database for station/object SR2CPA-13. If no packets are shown the sender has not sent any weather packets the latest 10 day(s).
| Time | Temp. | Humidity | Pressure | Rain* | Wind** | Luminosity | Snow |
|---|---|---|---|---|---|---|---|
| 1777853934 | 15° C | 54% | 0 hPa | 0 mm | - | - | - |
| 1777853334 | 15° C | 54% | 0 hPa | 0 mm | - | - | - |
| 1777852714 | 14.44° C | 54% | 0 hPa | 0 mm | - | - | - |
| 1777852114 | 14.44° C | 54% | 0 hPa | 0 mm | - | - | - |
| 1777851494 | 14.44° C | 53% | 0 hPa | 0 mm | - | - | - |
| 1777850894 | 14.44° C | 52% | 0 hPa | 0 mm | - | - | - |
| 1777850294 | 14.44° C | 55% | 0 hPa | 0 mm | - | - | - |
| 1777850114 | 15° C | 53% | 0 hPa | 0 mm | - | - | - |
| 1777849514 | 15° C | 51% | 0 hPa | 0 mm | - | - | - |
| 1777848914 | 14.44° C | 52% | 0 hPa | 0 mm | - | - | - |
| 1777848314 | 14.44° C | 55% | 0 hPa | 0 mm | - | - | - |
| 1777847694 | 14.44° C | 54% | 0 hPa | 0 mm | - | - | - |
| 1777847094 | 14.44° C | 56% | 0 hPa | 0 mm | - | - | - |
| 1777846494 | 13.89° C | 57% | 0 hPa | 0 mm | - | - | - |
| 1777845894 | 13.89° C | 56% | 0 hPa | 0 mm | - | - | - |
| 1777845294 | 14.44° C | 55% | 0 hPa | 0 mm | - | - | - |
| 1777844694 | 15° C | 55% | 0 hPa | 0 mm | - | - | - |
| 1777844074 | 14.44° C | 53% | 0 hPa | 0 mm | - | - | - |
| 1777843474 | 15° C | 55% | 0 hPa | 0 mm | - | - | - |
| 1777842874 | 15° C | 53% | 0 hPa | 0 mm | - | - | - |
| 1777842254 | 15.56° C | 52% | 0 hPa | 0 mm | - | - | - |
| 1777841654 | 16.11° C | 51% | 0 hPa | 0 mm | - | - | - |
| 1777841034 | 16.67° C | 47% | 0 hPa | 0 mm | - | - | - |
| 1777840434 | 16.67° C | 48% | 0 hPa | 0 mm | - | - | - |
| 1777839814 | 16.67° C | 47% | 0 hPa | 0 mm | - | - | - |
* Rain latest hour (hover to see other rain measurements)
** Current wind speed in m/s (hover to see current wind gust speed)